Tracking 30970 objects as of 3-Jul-2025
HD Live streaming from Space Station
objects crossing your sky now

FENGYUN 1C DEB

Track FENGYUN 1C DEB now!
10-day predictions


NORAD ID: 31294
Int'l Code: 1999-025BPC
Perigee: 776.1 km
Apogee: 923.1 km
Inclination: 98.5 °
Period: 101.8 minutes
Semi major axis: 7220 km
RCS: 0.012 m2 (small)
Launch date: May 10, 1999
Source: People's Republic of China (PRC)
Launch site: Taiyaun Space Center, China (TSC)

Note: This is SATELLITE DEBRIS
Your satellite tracking list
Your tracking list is empty




NASA's NSSDC Master Catalog

Two Line Element Set (TLE):
1 31294U 99025BPC 25179.94225496  .00000467  00000-0  24968-3 0  9998
2 31294  98.5348 182.6033 0101843  99.5093 261.7609 14.14959025945800
Source of the keplerian elements: AFSPC